Weather History for Siofok, Hungary

Change the Weather History Date:

Friday, February 7, 2014

  Actual Average Record
Temperature  
Mean Temperature 40 °F -  
Max Temperature 50 °F - - ()
Min Temperature 29 °F - - ()
Degree Days  
Heating Degree Days 26    
Moisture  
Dew Point 34 °F    
Average Humidity 79    
Maximum Humidity 99    
Minimum Humidity 51    
Precipitation  
Precipitation 0.00 in - - ()
Sea Level Pressure  
Sea Level Pressure 29.89 in    
Wind  
Wind Speed 4 mph ()    
Max Wind Speed 13 mph    
Max Gust Speed -    
Visibility 3.5 miles    
Events Fog    
T = Trace of Precipitation, MM = Missing Value Source: Averaged Metar Reports

Daily Weather History Graph

Daily Weather History Graph

Search for Another Location

Airport:

Trip Planner

Search our weather history database for the weather conditions in past years. The results will help you decide how hot, cold, wet, or windy it might be!

Date:

Astronomy

Feb. 07, 2014 Rise Set
Actual Time 7:04 AM CET 4:59 PM CET
Civil Twilight 6:32 AM CET 5:31 PM CET
Nautical Twilight 5:56 AM CET 6:07 PM CET
Astronomical Twilight 5:21 AM CET 6:43 PM CET
Moon 10:55 AM CET (2/7) 1:05 AM CET (2/7)
Length of Visible Light 10h 58m
Length of Day
9h 54m
First Quarter, 56% of the Moon is Illuminated
Feb 7
First Quarter
Feb 15
Full
Feb 22
Last Quarter
Mar 1
New
Mar 8
First Quarter

Hourly Weather History & Observations

Time (CET) Temp. Dew Point Humidity Pressure Visibility Wind Dir Wind Speed Gust Speed Precip Events Conditions
12:00 AM 30 °F 30 °F 98% 30.04 in 0 mi South 2.2 mph - - Fog Heavy Fog
1:00 AM 31 °F 30 °F 96% 30.03 in 0 mi SSE 2.2 mph - - Fog Heavy Fog
2:00 AM 31 °F 30 °F 96% 30.02 in 0 mi SE 4.5 mph - - Fog Heavy Fog
3:00 AM 30 °F 30 °F 98% 30.02 in 0 mi South 4.5 mph - - Fog Heavy Fog
4:00 AM 30 °F 30 °F 99% 29.99 in 0 mi ESE 2.2 mph - - Fog Heavy Fog
5:00 AM 31 °F 30 °F 96% 29.96 in 0 mi East 2.2 mph - - Fog Heavy Fog
6:00 AM 32 °F 31 °F 95% 29.96 in 0 mi East 4.5 mph - - Fog Heavy Fog
7:00 AM 33 °F 32 °F 95% 29.95 in 0 mi SE 4.5 mph - - Fog Heavy Fog
8:00 AM 33 °F 32 °F 96% 29.96 in 0 mi SE 4.5 mph - - Fog Heavy Fog
9:00 AM 33 °F 32 °F 96% 29.94 in - ESE 4.5 mph - -  
10:00 AM 34 °F 33 °F 96% 29.93 in - ESE 2.2 mph - -  
11:00 AM 36 °F 36 °F 99% 29.90 in - ESE 2.2 mph - -  
12:00 PM 42 °F 39 °F 86% 29.87 in - South 4.5 mph - -  
1:00 PM 46 °F 38 °F 64% 29.84 in - SSW 6.7 mph - -  
2:00 PM 50 °F 38 °F 52% 29.80 in - SSW 11.2 mph - -  
3:00 PM 50 °F 37 °F 51% 29.77 in - South 11.2 mph - -  
4:00 PM 50 °F 38 °F 52% 29.76 in - South 11.2 mph - -  
5:00 PM 49 °F 38 °F 55% 29.75 in - SSW 13.4 mph - -  
6:00 PM 49 °F 37 °F 53% 29.76 in - SSW 13.4 mph - -  
7:00 PM 47 °F 35 °F 51% 29.79 in 11 mi West 8.9 mph - -   Partly Cloudy
8:00 PM 42 °F 34 °F 65% 29.80 in 11 mi WNW 6.7 mph - -   Partly Cloudy
10:00 PM 41 °F 34 °F 68% 29.83 in 12 mi West 6.7 mph - -   Partly Cloudy
11:00 PM 41 °F 35 °F 71% 29.84 in 12 mi NNE 2.2 mph - -   Partly Cloudy